Regional Weather Roundup
Issued by NWS Cleveland, OH

Home | Current Version | Previous Version | Graphics & Text | Print | Product List | Glossary On
Versions: 1 2 3 4 5 6 7 8 9 10 11 12 13 14 15 16 17 18 19 20 21 22 23 24 25 26 27 28 29 30 31 32 33 34 35 36 37 38 39 40 41 42 43 44 45 46 47 48 49 50
000
ASUS41 KCLE 291200
RWRCLE
OHIO REGIONAL WEATHER ROUNDUP
NATIONAL WEATHER SERVICE WILMINGTON, OH
800 AM EDT FRI JUL 29 2016

NOTE: "FAIR" INDICATES FEW OR NO CLOUDS BELOW 12,000 FEET WITH NO
SIGNIFICANT WEATHER AND/OR OBSTRUCTIONS TO VISIBILITY.

OHZ001>008-015>018-024>027-034-035-043-044-291300-
   NORTHWEST OHIO

CITY           SKY/WX    TMP DP  RH WIND       PRES   REMARKS
DEFIANCE       CLOUDY    72  60  66 NE5       29.95R
FINDLAY        FAIR      72  65  78 NE6       29.94R
TOLEDO EXPRESS FAIR      70  62  76 N3        29.94R
TOLEDO EXEC    FAIR      73  64  73 N6        29.95R
LIMA           FAIR      69  67  93 NE3       29.95R FOG
$$

OHZ009>014-019>023-028>033-038-089-291300-
   NORTHEAST OHIO

CITY           SKY/WX    TMP DP  RH WIND       PRES   REMARKS
CLE-HOPKINS    FAIR      70  65  84 SW3       29.95R
CLE-LAKEFRONT  FAIR      72  68  87 S9        29.92R
CUY CO. ARPT   FOG       72  72 100 S6        29.94R VSB 3/4
LORAIN-ELYRIA  FAIR      67  65  93 CALM      29.94S FOG
ASHTABULA      FOG       66  66 100 S3        29.95R VSB 3/4
AKRON-CANTON   FOG       69  67  93 SW3       29.95S VSB 1/2
WOOSTER        NOT AVBL
MANSFIELD      FAIR      70  67  90 S3        29.96S
YOUNGSTOWN     FOG       68  67  96 S5        29.95S VSB 1/8
$$

OHZ042-051>053-060>062-070>072-077>081-291300-
  SOUTHWEST OHIO

CITY           SKY/WX    TMP DP  RH WIND       PRES   REMARKS
CINC-COVINGTON PTSUNNY   72  72 100 CALM      29.96R FOG
CINC-LUNKEN    FAIR      73  73 100 S5        29.95R FOG
HAMILTON       FAIR      71  69  93 CALM      29.96R FOG
DAYTON         NOT AVBL
WRIGHT-PAT AFB NOT AVBL
DAYTON GENERAL FAIR      71  68  90 SW5       29.95R
WILMINGTON     FOG       70  70 100 S6        29.95R VSB 3/4
$$

OHZ036-037-039>041-045>050-054>059-063>069-073>076-082>088-291300-
  CENTRAL AND SOUTHEAST OHIO

CITY           SKY/WX    TMP DP  RH WIND       PRES   REMARKS
COLUMBUS       FAIR      69  68  96 SE5       29.95R FOG
OSU AIRPORT    FAIR      69  69 100 S5        29.95S FOG
BOLTON FIELD   FOG       68  68 100 SW5         N/A  VSB 1/8
RICKENBACK AFB NOT AVBL
NEWARK         FOG       69  69 100 S6        29.95R VSB 3/4
MARION         FAIR      70  66  87 SE3       29.95R FOG
LANCASTER      CLOUDY    70  70 100 CALM      29.96R FOG
ZANESVILLE     CLOUDY    74  70  87 CALM      29.96R
NEW PHILLY     CLOUDY    74  70  87 CALM      29.96R FOG
$$




USA.gov is the U.S. government's official web portal to all federal, state and local government web resources and services.